Location: Wharf Road Observatory
(44.7802°N, 65.6070°W)
Time: 11:18:43
(UTC-03:00)

X-37B - Visible Passes

Search period start: 09 September 2024 00:00
Search period end: 19 September 2024 00:00
Orbit: 277 x 277 km, 45.0° (Epoch: 01 November)

Date Brightness Start Highest point End Pass type
(mag) Time Alt. Az. Time Alt. Az. Time Alt. Az.
09 Sep 2.3 05:17:57 16° SSE 05:17:57 16° SSE 05:19:32 10° ESE visible
10 Sep 1.6 05:18:41 25° SE 05:18:41 25° SE 05:20:34 10° E visible
11 Sep 1.0 05:19:23 37° SE 05:19:23 37° SE 05:21:22 10° E visible
12 Sep 0.6 05:20:03 50° ESE 05:20:03 50° ESE 05:22:06 10° E visible
13 Sep 0.4 05:20:44 58° E 05:20:44 58° E 05:22:48 10° E visible
14 Sep 0.5 05:21:25 58° ENE 05:21:25 58° ENE 05:23:30 10° E visible
15 Sep 0.5 05:22:09 56° ENE 05:22:09 56° ENE 05:24:11 10° E visible
16 Sep 0.7 05:22:56 51° E 05:22:56 51° E 05:24:53 10° E visible
17 Sep 1.0 05:23:48 40° ESE 05:23:48 40° ESE 05:25:34 10° ESE visible
18 Sep 1.7 05:24:48 27° SE 05:24:48 27° SE 05:26:10 10° ESE visible
